{"data":{"norad_id":67837,"epoch":"2026-09-19T06:06:58.803264Z","epoch_age_seconds":174054,"freshness":"STALE","line1":"1 67837U 26033S   26262.25484726  .00013213  00000+0  48902-3 0  9996","line2":"2 67837  43.0004 254.2165 0001604 281.3687  78.6985 15.27566602 34274","mean_motion":15.27566602,"eccentricity":0.0001604,"inclination_deg":43.0004,"raan_deg":254.2165,"arg_perigee_deg":281.3687,"mean_anomaly_deg":78.6985,"bstar":0.00048902,"rev_number":3427,"period_min":94.267575509614,"perigee_km":481.98867407994,"apogee_km":484.18975544963,"semimajor_km":6861.2262147648,"source":"CELESTRAK","updated_at":"2026-09-20T09:00:43.670353Z"}}